Location: Mohawk View
(42.7837°N, 73.7885°W)
Time: 07:58:32
(UTC+00:00)

CENTAUR R/B - Pass Details

Date: 17 June 2021
Orbit: 740 x 1447 km, 63.4° (Epoch: 17 July)

Event Time Altitude Azimuth Distance (km) Brightness Sun altitude
Rises 01:27:06 0° 222° (SW) 3,358 5.3 -8.2°
Reaches altitude 10° 01:29:23 10° 224° (SW) 2,499 4.7 -8.5°
Maximum altitude 01:35:10 72° 309° (NW) 1,022 2.9 -9.3°
Drops below altitude 10° 01:42:10 10° 33° (NNE) 2,989 5.2 -10.2°
Sets 01:45:07 0° 36° (NE) 4,064 5.9 -10.6°
